Temp
1 2 2 1 -0 -0 1 1 2 2 2 2 2 3 3 4 4 4 4 4 4 4 3 3 3 3 3 2 2 2 2 1 1 1 1 1 1 1 1 2 1 2 2
1 1 0 -1 -0 -1 0 1 1 2 2 2 2 3 3 3 3 3 3 3 3 3 3 3 2 2 2 2 1 1 1 1 1 1 1 1 1 1 2 2 1 2 1
1 1 1 0 1 0 0 0 0 1 2 2 2 2 2 2 3 3 3 2 2 2 2 2 2 2 2 2 1 1 1 1 1 1 1 1 1 1 1 1 1 1 1
1 1 0 0 0 0 0 0 1 1 1 1 1 2 2 2 1 2 2 2 2 2 2 1 2 1 1 1 1 1 0 1 1 1 1 1 1 1 1 1 1 1 1
1 1 0 0 0 -0 -0 0 0 0 0 0 1 1 1 1 1 2 2 2 2 2 2 1 1 1 1 1 1 1 1 1 1 1 1 1 1 1 1 0 0 0 0
0 -0 -0 -0 -0 -1 -1 -1 -1 -1 -0 -0 -0 1 1 1 1 1 2 2 2 1 1 1 1 1 1 0 0 0 -0 0 1 1 1 1 0 0 0 -0 -0 0 -0
-0 -1 -1 -1 -1 -1 -1 -1 -1 -1 -1 -1 -1 -0 1 1 1 1 1 1 1 1 1 1 1 1 -0 -0 -0 -0 -0 -0 0 0 0 0 -0 -0 -0 -0 -0 -0 -1
-1 -1 -1 -1 -1 -2 -2 -2 -2 -1 -1 -1 -1 -0 -0 0 1 0 1 0 0 0 -0 0 0 0 0 -0 -1 -1 -1 -0 -0 -0 -0 -0 -1 -1 -1 -1 -1 -1 -1
-2 -2 -2 -2 -2 -2 -2 -2 -2 -2 -2 -2 -2 -1 -1 -0 -0 -1 -0 -0 -0 -0 -1 -0 -0 -0 -1 -1 -1 -1 -1 -1 -1 -1 -1 -1 -1 -1 -1 -1 -1 -1 -2
-2 -2 -2 -2 -2 -2 -2 -2 -2 -2 -2 -3 -2 -1 -1 -1 -1 -1 -1 -1 -1 -1 -1 -1 -1 -1 -1 -1 -1 -1 -1 -1 -1 -1 -1 -1 -1 -1 -2 -2 -2 -2 -2
-2 -2 -2 -2 -3 -3 -3 -3 -3 -3 -3 -3 -3 -2 -1 -2 -2 -2 -2 -2 -2 -1 -1 -2 -2 -1 -1 -1 -1 -1 -1 -1 -2 -2 -2 -2 -2 -2 -2 -2 -2 -2 -2
-2 -2 -3 -3 -3 -3 -3 -3 -3 -3 -3 -4 -6 -6 -4 -3 -3 -3 -3 -2 -2 -2 -3 -2 -2 -2 -2 -2 -2 -2 -2 -2 -2 -2 -2 -2 -2 -2 -3 -3 -3 -3 -3
-2 -3 -3 -3 -3 -3 -3 -3 -4 -4 -5 -6 -6 -6 -6 -4 -4 -4 -4 -3 -3 -4 -3 -3 -2 -2 -2 -2 -2 -2 -2 -2 -3 -3 -3 -3 -3 -3 -3 -3 -3 -4 -4
-3 -3 -3 -4 -4 -3 -3 -3 -4 -5 -6 -6 -6 -6 -6 -6 -5 -5 -4 -4 -4 -4 -3 -3 -3 -2 -2 -2 -2 -2 -3 -3 -3 -3 -3 -3 -3 -4 -4 -4 -4 -4 -4
-4 -4 -4 -3 -3 -3 -4 -4 -4 -5 -5 -6 -6 -7 -6 -6 -6 -5 -5 -5 -5 -4 -4 -3 -3 -3 -3 -3 -3 -3 -3 -3 -3 -4 -4 -4 -4 -4 -4 -4 -4 -5 -5
-5 -4 -4 -4 -4 -4 -4 -4 -4 -4 -5 -6 -6 -7 -7 -7 -6 -6 -5 -5 -5 -4 -4 -4 -3 -3 -3 -3 -3 -4 -4 -4 -4 -4 -4 -4 -5 -5 -5 -5 -5 -6 -6
-5 -5 -5 -5 -4 -4 -3 -4 -4 -4 -5 -6 -6 -6 -7 -7 -6 -6 -6 -6 -5 -4 -4 -4 -3 -4 -4 -4 -4 -4 -4 -4 -4 -4 -4 -5 -5 -5 -6 -6 -6 -6 -7
-5 -6 -5 -5 -4 -4 -4 -4 -4 -4 -4 -5 -6 -6 -6 -6 -6 -6 -6 -6 -5 -4 -4 -4 -4 -4 -4 -4 -4 -4 -4 -5 -5 -5 -5 -5 -5 -6 -6 -6 -7 -7 -7
-5 -6 -6 -5 -5 -5 -5 -4 -4 -4 -4 -5 -6 -6 -6 -6 -5 -6 -6 -6 -5 -5 -5 -5 -5 -4 -5 -4 -5 -5 -5 -5 -5 -5 -5 -5 -6 -6 -7 -7 -7 -8 -8
-6 -6 -6 -6 -6 -5 -5 -5 -5 -5 -5 -5 -5 -6 -6 -6 -6 -6 -7 -7 -6 -5 -5 -5 -5 -5 -5 -5 -5 -5 -5 -5 -6 -6 -6 -6 -7 -7 -7 -7 -8 -8 -8
-5 -6 -6 -6 -6 -6 -6 -6 -5 -5 -5 -5 -5 -6 -6 -6 -6 -6 -7 -7 -6 -5 -5 -5 -5 -5 -5 -5 -5 -5 -5 -6 -6 -6 -7 -7 -7 -8 -8 -8 -9 -9 -9
-5 -6 -6 -7 -7 -7 -7 -7 -6 -6 -6 -6 -5 -6 -6 -6 -6 -6 -6 -8 -8 -6 -6 -5 -5 -6 -5 -5 -6 -6 -6 -6 -7 -7 -7 -8 -8 -9 -9 -9 -9 -9 -9
-6 -7 -7 -7 -8 -7 -7 -7 -7 -7 -7 -6 -6 -6 -6 -6 -6 -6 -6 -6 -7 -6 -7 -6 -5 -6 -6 -6 -6 -6 -7 -7 -9 -8 -8 -7 -8 -10 -9 -9 -9 -9 -9
-6 -7 -7 -7 -7 -7 -7 -7 -7 -7 -7 -7 -7 -6 -6 -6 -6 -6 -6 -6 -6 -6 -6 -6 -6 -6 -6 -6 -7 -7 -7 -7 -7 -8 -7 -7 -8 -8 -9 -9 -9 -9 -10
-6 -6 -6 -6 -6 -7 -7 -7 -8 -8 -8 -8 -8 -8 -8 -8 -8 -7 -7 -6 -6 -6 -6 -6 -6 -6 -7 -7 -7 -7 -7 -7 -7 -7 -7 -8 -8 -8 -9 -9 -9 -9 -10
-7 -7 -7 -6 -6 -6 -6 -7 -7 -8 -8 -8 -8 -8 -8 -8 -8 -8 -8 -7 -7 -7 -7 -6 -6 -7 -7 -7 -6 -7 -7 -7 -7 -7 -8 -8 -8 -8 -9 -9 -9 -9 -10
Height
3106 3107 3109 3110 3111 3116 3118 3119 3120 3121 3122 3123 3123 3124 3124 3124 3123 3123 3123 3123 3123 3122 3122 3122 3123 3122 3121 3121 3121 3121 3120 3120 3117 3116 3115 3114 3114 3112 3112 3111 3111 3111 3110
3099 3102 3101 3101 3102 3105 3111 3112 3114 3115 3116 3116 3116 3116 3116 3115 3115 3114 3114 3114 3114 3114 3114 3114 3114 3114 3114 3113 3113 3113 3111 3111 3110 3110 3109 3108 3108 3108 3108 3108 3108 3107 3106
3092 3094 3096 3096 3098 3102 3104 3104 3105 3107 3108 3107 3108 3107 3106 3106 3105 3105 3104 3104 3105 3104 3104 3104 3105 3105 3105 3105 3105 3105 3104 3103 3103 3103 3103 3102 3102 3104 3104 3104 3103 3103 3102
3086 3088 3090 3092 3094 3096 3097 3097 3098 3098 3099 3100 3099 3098 3097 3097 3097 3097 3096 3096 3095 3095 3095 3095 3095 3096 3096 3096 3096 3096 3096 3096 3096 3096 3097 3097 3098 3100 3100 3100 3099 3098 3097
3079 3082 3084 3086 3087 3089 3089 3090 3090 3090 3090 3090 3090 3090 3089 3089 3088 3087 3087 3087 3087 3086 3086 3087 3087 3086 3087 3087 3088 3089 3090 3090 3090 3091 3092 3092 3094 3095 3095 3095 3094 3093 3092
3074 3077 3078 3080 3081 3081 3082 3083 3082 3082 3082 3082 3081 3081 3081 3080 3079 3078 3078 3077 3077 3078 3077 3077 3078 3078 3079 3080 3081 3081 3083 3084 3085 3087 3088 3088 3089 3090 3090 3089 3088 3088 3088
3071 3072 3073 3074 3075 3075 3076 3076 3076 3076 3075 3074 3073 3072 3070 3071 3070 3069 3068 3068 3067 3068 3069 3069 3070 3071 3072 3072 3074 3074 3077 3079 3080 3082 3083 3084 3084 3084 3085 3084 3083 3083 3083
3067 3068 3068 3069 3070 3070 3070 3070 3069 3069 3068 3066 3064 3063 3062 3060 3060 3060 3059 3060 3060 3060 3061 3061 3063 3065 3066 3067 3068 3069 3073 3073 3076 3077 3078 3079 3079 3079 3079 3079 3078 3077 3078
3063 3064 3065 3065 3065 3065 3065 3064 3063 3061 3059 3057 3055 3053 3052 3051 3051 3051 3050 3052 3052 3053 3053 3055 3057 3058 3059 3061 3063 3066 3067 3069 3071 3072 3073 3073 3074 3074 3074 3074 3073 3073 3073
3059 3060 3060 3060 3060 3059 3058 3057 3055 3053 3051 3048 3046 3043 3043 3042 3041 3042 3043 3044 3046 3047 3049 3050 3051 3051 3055 3057 3059 3062 3063 3065 3067 3067 3068 3069 3069 3069 3068 3068 3068 3068 3067
3053 3054 3054 3053 3053 3052 3050 3049 3047 3045 3042 3039 3036 3033 3032 3033 3033 3034 3035 3037 3039 3041 3042 3045 3045 3047 3051 3053 3055 3057 3059 3060 3061 3063 3064 3064 3064 3063 3063 3063 3063 3062 3060
3049 3048 3047 3046 3045 3044 3042 3040 3038 3036 3033 3030 3027 3025 3023 3024 3026 3028 3029 3031 3034 3035 3037 3039 3041 3044 3046 3048 3051 3054 3055 3056 3057 3059 3059 3058 3058 3058 3058 3057 3057 3056 3054
3043 3042 3040 3039 3038 3036 3034 3032 3030 3027 3025 3022 3021 3019 3017 3017 3019 3021 3023 3025 3027 3029 3032 3035 3038 3039 3041 3045 3047 3049 3050 3051 3052 3053 3053 3053 3053 3053 3052 3051 3050 3049 3048
3036 3035 3033 3032 3030 3029 3027 3025 3023 3020 3018 3017 3015 3014 3012 3012 3013 3015 3017 3019 3022 3024 3027 3030 3032 3034 3038 3041 3042 3044 3045 3046 3047 3048 3048 3048 3048 3047 3046 3045 3044 3043 3042
3029 3028 3027 3025 3023 3022 3020 3018 3016 3014 3012 3010 3009 3008 3007 3007 3008 3008 3011 3014 3016 3018 3022 3025 3028 3031 3033 3036 3037 3038 3039 3041 3042 3043 3043 3042 3042 3041 3040 3040 3039 3037 3035
3022 3021 3021 3019 3017 3016 3014 3012 3010 3008 3006 3005 3003 3002 3001 3002 3003 3004 3006 3008 3011 3014 3018 3021 3024 3026 3028 3030 3031 3033 3034 3035 3036 3037 3037 3036 3036 3034 3034 3033 3032 3030 3028
3015 3015 3015 3014 3012 3010 3008 3007 3005 3002 3000 2999 2998 2997 2996 2997 2998 2999 3001 3004 3007 3011 3014 3016 3019 3021 3022 3024 3026 3027 3029 3029 3030 3030 3030 3029 3029 3028 3027 3026 3024 3022 3020
3008 3008 3008 3007 3006 3005 3003 3001 2998 2997 2995 2994 2992 2991 2991 2992 2993 2995 2996 2999 3003 3007 3010 3012 3013 3014 3016 3018 3019 3021 3022 3022 3023 3023 3023 3022 3021 3021 3020 3018 3016 3014 3011
3000 3000 2999 3000 2999 2998 2996 2995 2993 2991 2989 2988 2987 2986 2986 2987 2987 2989 2991 2995 2999 3002 3004 3005 3007 3009 3010 3011 3012 3014 3014 3015 3015 3015 3015 3014 3013 3013 3012 3010 3008 3005 3003
2992 2992 2991 2991 2992 2991 2990 2989 2987 2986 2984 2983 2982 2982 2981 2982 2984 2985 2986 2989 2993 2995 2996 2998 3000 3001 3003 3004 3005 3006 3006 3007 3007 3007 3006 3005 3004 3004 3003 3001 2999 2997 2994
2983 2983 2982 2983 2984 2984 2984 2983 2981 2980 2979 2978 2978 2977 2976 2976 2978 2979 2980 2983 2986 2988 2989 2991 2992 2993 2995 2996 2997 2997 2998 2998 2998 2997 2997 2996 2995 2994 2993 2992 2990 2987 2985
2976 2975 2975 2975 2975 2976 2975 2974 2973 2973 2973 2972 2972 2971 2970 2970 2971 2972 2973 2975 2978 2980 2981 2982 2983 2984 2985 2986 2987 2987 2988 2988 2988 2987 2986 2986 2984 2984 2983 2982 2980 2978 2976
2969 2968 2968 2968 2968 2967 2967 2966 2966 2965 2965 2965 2964 2964 2964 2964 2964 2964 2965 2966 2968 2970 2971 2972 2973 2974 2975 2976 2976 2977 2977 2978 2976 2975 2975 2974 2973 2972 2971 2971 2969 2968 2966
2962 2962 2961 2961 2960 2959 2959 2958 2958 2957 2956 2955 2955 2954 2954 2955 2955 2955 2956 2957 2958 2959 2960 2960 2962 2963 2965 2965 2965 2965 2965 2964 2963 2963 2962 2962 2962 2961 2961 2960 2959 2958 2957
2957 2956 2954 2953 2952 2951 2950 2949 2948 2948 2947 2946 2946 2945 2944 2943 2943 2944 2945 2945 2946 2947 2948 2949 2949 2951 2951 2952 2952 2952 2952 2951 2951 2952 2951 2951 2951 2950 2950 2950 2949 2948 2947
2950 2949 2947 2946 2944 2943 2941 2940 2939 2938 2937 2936 2935 2934 2934 2933 2932 2932 2932 2933 2934 2934 2935 2936 2937 2938 2938 2939 2940 2940 2940 2940 2940 2940 2940 2940 2940 2940 2939 2939 2939 2938 2938
Wind_Speed
38 39 46 43 26 23 25 26 28 28 29 31 32 34 35 35 35 36 35 33 32 32 31 30 29 28 31 31 33 30 30 30 30 31 27 23 23 20 18 14 12 12 13
43 43 39 37 31 20 25 28 29 30 32 34 36 38 38 37 37 36 35 35 33 32 32 32 30 31 32 31 30 32 29 30 29 27 23 22 19 16 13 14 13 13 15
31 31 29 27 25 27 28 27 28 34 38 39 39 39 38 37 36 36 35 35 35 34 33 33 33 33 32 31 29 31 29 28 25 23 21 18 13 13 14 14 14 15 15
37 33 32 29 28 29 30 31 32 34 36 38 37 36 36 35 34 34 35 35 34 34 33 33 33 32 31 31 30 29 27 24 21 20 15 13 13 14 14 15 15 15 15
27 30 31 31 32 31 32 32 33 34 34 33 33 32 32 33 33 33 34 35 34 33 33 31 30 29 30 27 26 25 23 20 17 14 13 13 14 15 16 16 14 14 14
21 23 26 28 29 29 29 28 28 28 29 29 30 31 32 32 33 34 34 33 33 33 31 30 28 27 26 25 23 21 19 17 14 14 14 13 15 16 16 16 14 12 12
20 21 23 23 23 22 23 24 25 27 29 30 32 32 33 34 34 33 33 33 31 29 29 27 26 25 23 22 21 18 16 16 14 14 14 14 15 16 15 14 13 12 11
17 18 19 20 20 21 23 24 26 28 31 32 34 35 34 34 34 32 32 31 29 28 26 24 24 22 22 19 18 15 16 15 14 14 15 15 15 15 14 13 13 13 14
15 16 18 20 22 24 25 27 28 30 33 34 33 32 33 33 31 30 29 29 27 26 23 22 21 21 19 18 17 16 16 14 14 14 15 15 15 14 14 13 14 15 16
15 17 19 22 23 25 26 28 31 32 34 34 34 33 31 31 28 27 26 26 25 23 22 22 19 18 18 19 17 16 14 14 14 14 15 15 15 14 14 14 16 17 18
18 19 21 23 26 28 29 31 33 35 35 35 37 36 30 28 27 25 23 23 23 21 21 21 18 19 20 18 16 15 15 15 14 15 15 15 14 14 15 16 17 19 20
23 24 23 25 27 29 32 33 33 33 33 34 30 29 27 24 25 24 23 22 23 19 19 19 19 21 19 17 16 16 15 15 14 15 15 14 14 15 16 17 18 19 20
24 24 25 27 26 27 27 28 28 28 28 25 25 26 23 21 22 22 22 21 20 19 20 20 21 20 18 17 17 17 16 15 15 14 14 14 15 16 17 17 18 19 21
24 24 27 27 27 27 26 25 24 22 22 21 21 22 20 19 20 21 21 21 22 21 21 22 21 19 19 19 18 17 15 15 15 14 14 14 15 16 16 17 18 20 21
25 25 24 22 23 23 24 24 24 22 22 22 22 21 19 17 20 22 22 21 22 22 22 22 21 20 19 19 17 16 16 16 16 16 15 15 16 16 17 18 20 21 21
29 24 23 22 21 20 22 23 23 24 23 22 22 22 20 19 21 21 20 21 22 22 23 22 21 20 20 18 17 18 18 18 18 17 17 17 17 18 19 21 23 23 25
23 24 22 22 20 19 19 20 22 23 23 22 22 21 20 18 20 21 22 23 24 24 22 21 21 21 20 19 20 20 21 21 20 20 19 19 19 20 22 24 26 28 29
23 23 19 22 22 21 21 21 21 21 21 19 21 20 19 20 21 23 24 24 22 20 21 24 23 22 22 22 22 23 24 22 22 22 22 23 23 24 25 26 28 31 30
25 24 23 24 23 24 20 20 20 20 19 18 17 18 19 23 25 26 24 20 19 22 25 24 24 24 24 25 25 25 25 25 25 25 25 26 26 27 28 29 32 31 30
25 28 27 23 19 19 24 23 20 18 18 17 16 17 19 22 23 26 24 22 22 24 24 24 26 27 27 27 28 27 28 28 27 27 27 27 28 29 30 32 34 33 30
24 25 25 24 24 27 25 24 22 20 19 17 17 18 20 23 23 25 23 23 25 25 26 27 29 29 29 29 30 30 30 30 29 29 29 29 33 31 33 34 35 33 30
22 23 23 23 22 23 27 27 27 25 24 21 18 19 21 25 26 28 29 27 26 29 30 30 31 31 31 32 32 32 31 31 30 32 35 38 34 34 35 35 35 32 30
20 20 21 22 23 24 24 26 26 25 26 26 25 24 22 24 27 29 31 31 33 32 32 35 35 34 34 33 34 33 32 32 35 41 42 37 33 36 35 34 33 31 30
16 18 21 23 25 25 26 26 27 27 29 28 28 29 31 31 28 27 30 34 36 36 37 38 38 37 36 35 35 37 42 44 41 40 35 33 34 36 34 32 32 30 29
20 21 21 22 24 25 26 27 28 28 29 30 31 31 31 31 35 36 35 34 35 38 39 40 41 42 44 45 44 44 42 39 36 35 32 33 34 33 32 32 31 29 30
21 22 22 23 24 25 26 27 27 28 30 30 30 30 31 33 32 34 39 39 37 36 36 37 38 40 41 41 39 37 37 36 36 35 34 35 34 31 31 31 30 29 29
Wind_Direction
245 247 250 251 246 251 259 261 261 260 260 261 264 267 272 276 278 277 275 273 274 274 273 273 273 274 273 277 264 273 276 280 283 287 289 288 287 282 278 269 271 278 287
246 251 263 238 222 243 262 261 264 264 263 264 267 269 271 273 273 273 273 273 271 271 272 272 272 271 271 276 253 276 278 280 282 282 282 282 277 271 261 267 276 283 284
248 251 256 265 272 268 257 259 261 262 266 271 272 273 272 271 272 272 271 271 273 273 273 273 273 270 272 271 273 276 278 278 277 275 276 270 259 259 264 271 277 282 283
245 249 253 256 256 257 258 262 266 268 270 273 273 272 272 272 271 272 272 272 272 272 271 270 271 272 272 270 271 271 271 270 268 267 256 249 257 262 269 274 278 280 284
244 248 253 257 259 261 264 266 268 268 267 269 271 272 272 272 273 272 273 274 273 271 271 270 268 267 267 266 267 267 265 262 260 238 242 250 260 269 271 274 275 279 286
249 251 253 257 261 264 267 267 267 267 268 270 272 272 273 273 273 271 271 272 272 272 270 268 267 266 264 263 260 258 258 250 232 238 247 257 264 268 271 273 276 281 286
255 257 260 262 261 261 262 266 270 274 276 278 278 277 275 275 275 275 273 269 269 269 268 267 266 262 258 254 254 250 242 231 235 243 253 261 265 266 270 272 276 280 285
253 256 260 263 265 269 272 274 276 278 280 282 281 280 278 276 275 274 272 270 267 263 262 261 260 258 256 253 245 229 224 230 241 252 260 262 265 267 269 270 274 282 286
256 256 258 262 266 271 276 278 280 284 285 287 286 282 278 274 272 269 267 266 263 260 255 255 253 254 248 240 223 219 224 236 249 256 262 264 265 267 268 270 277 284 289
260 262 267 271 274 275 278 280 283 287 292 292 289 283 279 273 267 263 259 260 257 253 252 250 243 238 231 217 217 222 234 243 252 260 262 263 265 267 270 275 282 287 291
270 274 278 279 280 280 282 283 286 287 290 290 289 287 280 265 262 257 254 255 251 247 244 242 227 220 216 217 223 231 241 249 255 260 262 264 267 271 274 279 285 291 294
280 284 283 283 285 287 287 285 286 288 289 292 290 286 283 256 251 249 248 245 243 238 235 225 219 216 218 223 230 239 245 252 256 259 263 268 272 275 279 285 289 293 296
278 279 281 285 284 292 293 288 289 291 293 292 285 286 285 259 245 243 242 238 235 226 223 221 219 220 223 229 236 243 248 254 257 261 265 269 272 279 284 288 293 297 297
275 277 286 279 280 287 292 290 294 295 290 291 291 292 277 259 245 242 236 231 225 221 222 222 222 224 227 234 239 246 251 255 258 261 265 270 275 281 286 293 297 298 299
275 280 288 291 285 287 288 289 292 294 293 290 292 290 279 260 244 237 231 227 225 223 224 224 225 227 231 237 243 249 254 256 259 261 264 270 276 284 292 296 298 300 302
279 282 287 293 290 290 289 289 290 290 287 286 288 288 275 258 252 243 234 228 227 226 225 226 227 231 235 241 248 252 256 258 260 263 266 270 277 285 293 297 299 301 305
273 274 279 290 290 291 294 292 290 291 290 285 286 281 273 251 247 241 233 229 228 228 227 230 233 236 240 245 249 253 256 259 263 266 270 274 279 285 295 298 298 301 305
273 277 273 275 285 292 296 298 299 292 291 282 284 276 260 245 243 238 232 230 230 231 229 234 236 240 244 246 250 254 258 262 266 269 273 277 280 282 292 297 302 305 303
269 273 274 263 272 283 286 291 299 297 295 286 281 275 262 250 245 236 231 234 231 230 237 240 243 246 249 252 255 258 262 265 267 271 274 277 280 282 287 289 300 303 302
264 265 271 273 270 280 280 286 290 295 295 293 280 273 266 260 259 247 229 226 230 245 247 247 249 251 254 256 259 262 265 267 268 271 274 277 280 284 286 286 297 300 300
265 267 271 270 261 263 280 283 282 290 291 290 283 271 261 261 258 247 228 235 245 249 251 253 255 256 258 260 262 263 265 267 270 272 273 276 283 282 285 285 293 295 295
273 270 268 270 269 267 270 277 282 277 275 281 285 274 265 262 261 258 244 237 244 252 255 255 256 258 259 261 263 265 267 268 270 271 272 282 278 278 282 283 289 291 289
277 274 273 273 276 275 276 273 275 279 279 276 273 270 271 268 264 261 261 252 241 245 255 259 259 259 260 262 263 265 266 270 268 270 281 279 276 280 283 286 285 286 284
290 280 273 271 273 276 278 279 280 277 276 278 277 274 268 263 264 266 263 257 255 254 255 258 260 261 260 261 263 264 267 270 273 280 279 279 278 279 281 282 281 282 279
290 288 286 283 280 279 279 277 276 277 278 277 279 280 280 280 266 261 262 265 263 260 258 258 260 262 262 264 266 271 274 277 279 277 277 276 278 279 279 276 277 276 276
295 293 291 289 288 286 284 281 280 279 279 279 280 279 276 277 279 271 261 260 263 263 261 261 263 263 265 267 269 271 272 274 275 276 275 274 276 276 274 274 273 272 274